Regional Weather Roundup
Issued by NWS

Home | Current Version | Previous Version | Text Only | Print | Product List | Glossary Off
Versions: 1 2 3 4 5 6 7 8 9 10 11 12 13 14 15 16 17 18 19 20 21 22 23 24 25 26 27 28 29 30 31 32 33 34 35 36 37 38 39 40 41 42 43 44 45 46 47 48 49 50

000
ASUS43 KFSD 071010
RWRSD

WEATHER ROUNDUP FOR SOUTH DAKOTA
NATIONAL WEATHER SERVICE SIOUX FALLS SD
400 AM CST SUN FEB 07 2016

NOTE: "FAIR" INDICATES FEW OR NO CLOUDS BELOW 12,000 FEET WITH NO
SIGNIFICANT WEATHER AND/OR OBSTRUCTIONS TO VISIBILITY.


SDZ001>005-009-010-012>017-071100-
NORTHWEST AND NORTH CENTRAL SOUTH DAKOTA

CITY           SKY/WX    TMP DP  RH WIND       PRES   REMARKS
BUFFALO          N/A     35  19  52 NW31G43   29.94R WCI  22
FAITH            N/A     32  27  81 W22G31    29.96R WCI  19
MOBRIDGE       MOCLDY    39  27  62 NW22G29   29.84R
$$

SDZ012>016-024>037-041>051-057-063-072>074-071100-
SOUTHWEST AND SOUTH CENTRAL SOUTH DAKOTA

CITY           SKY/WX    TMP DP  RH WIND       PRES   REMARKS
RAPID CTY ARPT CLEAR     37  17  44 NW28G41   30.05R
PIERRE         CLOUDY    36  25  64 W20       29.93F
CUSTER         FLURRIES  26  15  63 NW15G32   30.03S WCI  14
ELLSWORTH AFB  PTCLDY    35  18  49 NW24G31   30.04  WCI  23
PHILIP         PTCLDY    33  24  69 W14       30.02R WCI  23
PINE RIDGE     CLOUDY    35  21  56 W7        30.09R WCI  29
SPEARFISH      FAIR      32  16  51 W23G31    30.06S WCI  19
WINNER         FAIR      36  24  62 W18       29.98S
$$

SDZ004>011-016>023-039-040-071100-
NORTHEAST SOUTH DAKOTA

CITY           SKY/WX    TMP DP  RH WIND       PRES   REMARKS
ABERDEEN       CLOUDY    38  23  55 W23G32    29.77R
WATERTOWN      CLOUDY    34  24  67 W23G31    29.74R WCI  22
BROOKINGS      CLEAR     35  26  69 W28G36    29.76S WCI  22
SISSETON         N/A     38  25  59 NW29G38   29.66R
$$

SDZ017-020-022-023-036>040-048>070-071100-
SOUTHEAST SOUTH DAKOTA

CITY           SKY/WX    TMP DP  RH WIND       PRES   REMARKS
SIOUX FALLS    CLEAR     35  27  72 W18       29.83S WCI  24
HURON          CLOUDY    36  27  69 W18       29.86S
CHAMBERLAIN    PTCLDY    35  26  70 W15G23    29.94S WCI  25
MITCHELL       PTCLDY    38  28  67 W18       29.91R
YANKTON        CLEAR     37  27  65 W23       29.91R
$$

ABBREVIATIONS USED IN REMARKS
   TC - TEMPERATURE IN CELSIUS
  WCI - WIND CHILL INDEX
   HX - HEAT INDEX
  VSB - VISIBILITY




USA.gov is the U.S. government's official web portal to all federal, state and local government web resources and services.